• In Deutschland
  • Länderverzeichnis
  • Für 7 Tage
  • Wassertemperatur
  • Satellitenkarten
  • Wetterkarte
  • Widgets
  • user-avatar
    Anmelden

    Stündliche Wetter Orange Walk

    Heute, 14 Dezember, Donnerstag

    Zeit Temperatur Niederschläge Wind Luftdruck Luftfeuchtigkeit
    00:00 +18°C° 0 mm 1 m/S 761 mmHg 83%
    01:00 +16°C° 0 mm 1 m/S 761 mmHg 85%
    02:00 +15°C° 0 mm 0 m/S 760 mmHg 88%
    03:00 +14°C° 0 mm 0 m/S 760 mmHg 90%
    04:00 +14°C° 0 mm 0 m/S 760 mmHg 91%
    05:00 +15°C° 0 mm 1 m/S 760 mmHg 93%
    06:00 +15°C° 0 mm 1 m/S 760 mmHg 94%
    07:00 +16°C° 0 mm 0 m/S 760 mmHg 84%
    08:00 +19°C° 0 mm 0 m/S 761 mmHg 73%
    09:00 +22°C° 0 mm 0 m/S 761 mmHg 63%
    10:00 +25°C° 0 mm 1 m/S 761 mmHg 58%
    11:00 +27°C° 0 mm 1 m/S 760 mmHg 54%
    12:00 +28°C° 0 mm 2 m/S 760 mmHg 49%
    13:00 +28°C° 0 mm 2 m/S 759 mmHg 51%
    14:00 +28°C° 0 mm 2 m/S 759 mmHg 52%
    15:00 +28°C° 0 mm 2 m/S 758 mmHg 54%
    16:00 +26°C° 0 mm 2 m/S 758 mmHg 64%
    17:00 +24°C° 0 mm 2 m/S 758 mmHg 74%
    18:00 +22°C° 0 mm 1 m/S 758 mmHg 84%
    19:00 +22°C° 0 mm 1 m/S 759 mmHg 85%
    20:00 +22°C° 0 mm 1 m/S 759 mmHg 87%
    21:00 +21°C° 0 mm 1 m/S 760 mmHg 89%
    22:00 +21°C° 0 mm 1 m/S 760 mmHg 90%
    23:00 +21°C° 0 mm 1 m/S 759 mmHg 91%

    Morgen, 15 Dezember, Freitag

    Zeit Temperatur Niederschläge Wind Luftdruck Luftfeuchtigkeit
    00:00 +21°C° 0 mm 1 m/S 759 mmHg 91%
    01:00 +21°C° 0 mm 1 m/S 759 mmHg 91%
    02:00 +21°C° 0 mm 1 m/S 759 mmHg 91%
    03:00 +22°C° 0 mm 1 m/S 758 mmHg 91%
    04:00 +22°C° 0 mm 1 m/S 758 mmHg 91%
    05:00 +22°C° 0 mm 1 m/S 758 mmHg 91%
    06:00 +22°C° 0 mm 1 m/S 758 mmHg 91%
    07:00 +23°C° 0 mm 2 m/S 759 mmHg 87%
    08:00 +25°C° 0 mm 2 m/S 760 mmHg 82%
    09:00 +26°C° 0 mm 2 m/S 760 mmHg 77%
    10:00 +27°C° 0,1 mm 2 m/S 760 mmHg 75%
    11:00 +28°C° 0,1 mm 2 m/S 760 mmHg 72%
    12:00 +29°C° 0,1 mm 2 m/S 759 mmHg 69%
    13:00 +29°C° 0 mm 2 m/S 759 mmHg 68%
    14:00 +30°C° 0 mm 2 m/S 758 mmHg 67%
    15:00 +30°C° 0 mm 2 m/S 758 mmHg 66%
    16:00 +28°C° 0 mm 2 m/S 758 mmHg 73%
    17:00 +27°C° 0 mm 1 m/S 758 mmHg 79%
    18:00 +25°C° 0 mm 1 m/S 759 mmHg 85%
    19:00 +25°C° 0 mm 1 m/S 759 mmHg 86%
    20:00 +25°C° 0 mm 1 m/S 760 mmHg 87%
    21:00 +24°C° 0 mm 1 m/S 760 mmHg 89%
    22:00 +24°C° 0,1 mm 1 m/S 760 mmHg 89%
    23:00 +24°C° 0,1 mm 1 m/S 760 mmHg 90%

    übermorgen, 16 Dezember, Samstag

    Zeit Temperatur Niederschläge Wind Luftdruck Luftfeuchtigkeit
    00:00 +24°C° 0,1 mm 1 m/S 760 mmHg 91%
    01:00 +24°C° 0,1 mm 1 m/S 760 mmHg 93%
    02:00 +23°C° 0,1 mm 1 m/S 759 mmHg 94%
    03:00 +23°C° 0,1 mm 1 m/S 759 mmHg 96%
    04:00 +23°C° 0,1 mm 1 m/S 759 mmHg 97%
    05:00 +23°C° 0,1 mm 2 m/S 760 mmHg 98%
    06:00 +23°C° 0,1 mm 2 m/S 760 mmHg 98%
    07:00 +24°C° 0,2 mm 2 m/S 760 mmHg 95%
    08:00 +25°C° 0,2 mm 2 m/S 761 mmHg 92%
    09:00 +26°C° 0,2 mm 2 m/S 761 mmHg 89%
    10:00 +27°C° 0,4 mm 2 m/S 761 mmHg 86%
    11:00 +28°C° 0,4 mm 2 m/S 761 mmHg 82%
    12:00 +29°C° 0,4 mm 2 m/S 760 mmHg 79%
    13:00 +29°C° 1 mm 2 m/S 760 mmHg 82%
    14:00 +28°C° 1 mm 2 m/S 759 mmHg 84%
    15:00 +28°C° 1 mm 2 m/S 758 mmHg 87%
    16:00 +27°C° 1 mm 2 m/S 758 mmHg 90%
    17:00 +26°C° 1 mm 2 m/S 759 mmHg 93%
    18:00 +25°C° 1 mm 2 m/S 759 mmHg 96%
    19:00 +24°C° 0 mm 2 m/S 759 mmHg 97%
    20:00 +24°C° 0 mm 2 m/S 760 mmHg 97%
    21:00 +24°C° 0 mm 1 m/S 760 mmHg 98%
    22:00 +24°C° 0,2 mm 1 m/S 760 mmHg 98%
    23:00 +24°C° 0,2 mm 1 m/S 760 mmHg 98%

    17 Dezember, Sonntag

    Zeit Temperatur Niederschläge Wind Luftdruck Luftfeuchtigkeit
    00:00 +24°C° 0,2 mm 1 m/S 760 mmHg 99%
    01:00 +24°C° 0,5 mm 1 m/S 760 mmHg 99%
    02:00 +24°C° 0,5 mm 1 m/S 760 mmHg 99%
    03:00 +24°C° 0,5 mm 1 m/S 759 mmHg 98%
    04:00 +24°C° 0,1 mm 1 m/S 759 mmHg 98%
    05:00 +24°C° 0,1 mm 1 m/S 760 mmHg 98%
    06:00 +24°C° 0,1 mm 1 m/S 760 mmHg 98%
    07:00 +25°C° 0,1 mm 2 m/S 760 mmHg 94%
    08:00 +27°C° 0,1 mm 2 m/S 761 mmHg 90%
    09:00 +28°C° 0,1 mm 3 m/S 761 mmHg 87%
    10:00 +29°C° 0,1 mm 3 m/S 761 mmHg 78%
    11:00 +30°C° 0,1 mm 3 m/S 760 mmHg 70%
    12:00 +33°C° 0,1 mm 3 m/S 760 mmHg 62%
    13:00 +31°C° 0,1 mm 3 m/S 759 mmHg 63%
    14:00 +31°C° 0,1 mm 3 m/S 758 mmHg 63%
    15:00 +31°C° 0,1 mm 3 m/S 758 mmHg 63%
    16:00 +29°C° 0 mm 3 m/S 758 mmHg 72%
    17:00 +28°C° 0 mm 2 m/S 758 mmHg 82%
    18:00 +26°C° 0 mm 2 m/S 758 mmHg 91%
    19:00 +25°C° 0,1 mm 2 m/S 759 mmHg 93%
    20:00 +25°C° 0,1 mm 2 m/S 759 mmHg 95%
    21:00 +25°C° 0,1 mm 2 m/S 760 mmHg 98%
    22:00 +25°C° 0,1 mm 2 m/S 760 mmHg 98%
    23:00 +25°C° 0,1 mm 2 m/S 759 mmHg 98%

    18 Dezember, Montag

    Zeit Temperatur Niederschläge Wind Luftdruck Luftfeuchtigkeit
    00:00 +25°C° 0,1 mm 2 m/S 759 mmHg 98%
    01:00 +25°C° 0,1 mm 2 m/S 759 mmHg 98%
    02:00 +24°C° 0,1 mm 2 m/S 759 mmHg 98%
    03:00 +24°C° 0,1 mm 2 m/S 759 mmHg 98%
    04:00 +24°C° 0,1 mm 2 m/S 759 mmHg 98%
    05:00 +24°C° 0,1 mm 2 m/S 759 mmHg 98%
    06:00 +24°C° 0,1 mm 2 m/S 759 mmHg 98%
    07:00 +25°C° 0,2 mm 2 m/S 760 mmHg 94%
    08:00 +27°C° 0,2 mm 3 m/S 760 mmHg 91%
    09:00 +28°C° 0,2 mm 3 m/S 761 mmHg 87%
    10:00 +28°C° 0,8 mm 3 m/S 760 mmHg 86%
    11:00 +29°C° 0,8 mm 3 m/S 760 mmHg 85%
    12:00 +29°C° 0,8 mm 4 m/S 760 mmHg 84%
    13:00 +29°C° 0,4 mm 4 m/S 759 mmHg 80%
    14:00 +30°C° 0,4 mm 4 m/S 758 mmHg 76%
    15:00 +30°C° 0,4 mm 4 m/S 758 mmHg 72%
    16:00 +29°C° 0,1 mm 3 m/S 758 mmHg 78%
    17:00 +28°C° 0,1 mm 3 m/S 758 mmHg 85%
    18:00 +26°C° 0,1 mm 2 m/S 759 mmHg 91%
    19:00 +26°C° 0,1 mm 2 m/S 759 mmHg 93%
    20:00 +25°C° 0,1 mm 2 m/S 759 mmHg 96%
    21:00 +25°C° 0,1 mm 2 m/S 760 mmHg 98%
    22:00 +25°C° 0 mm 2 m/S 759 mmHg 98%
    23:00 +25°C° 0 mm 2 m/S 759 mmHg 98%

    19 Dezember, Dienstag

    Zeit Temperatur Niederschläge Wind Luftdruck Luftfeuchtigkeit
    00:00 +25°C° 0 mm 2 m/S 759 mmHg 98%
    01:00 +25°C° 0,1 mm 2 m/S 759 mmHg 98%
    02:00 +25°C° 0,1 mm 2 m/S 759 mmHg 99%
    03:00 +25°C° 0,1 mm 2 m/S 758 mmHg 99%
    04:00 +25°C° 0,1 mm 1 m/S 759 mmHg 99%
    05:00 +24°C° 0,1 mm 1 m/S 759 mmHg 99%
    06:00 +24°C° 0,1 mm 1 m/S 759 mmHg 99%
    07:00 +26°C° 0 mm 2 m/S 760 mmHg 94%
    08:00 +27°C° 0 mm 2 m/S 760 mmHg 90%
    09:00 +28°C° 0 mm 2 m/S 761 mmHg 85%
    10:00 +30°C° 0,1 mm 2 m/S 760 mmHg 76%
    11:00 +31°C° 0,1 mm 2 m/S 760 mmHg 67%
    12:00 +33°C° 0,1 mm 3 m/S 759 mmHg 59%
    13:00 +33°C° 0,1 mm 3 m/S 759 mmHg 59%
    14:00 +33°C° 0,1 mm 3 m/S 759 mmHg 59%
    15:00 +33°C° 0,1 mm 3 m/S 758 mmHg 59%
    16:00 +30°C° 0 mm 2 m/S 759 mmHg 67%
    17:00 +29°C° 0 mm 2 m/S 759 mmHg 75%
    18:00 +27°C° 0 mm 2 m/S 759 mmHg 84%
    19:00 +26°C° 0 mm 2 m/S 760 mmHg 86%
    20:00 +26°C° 0 mm 1 m/S 760 mmHg 89%
    21:00 +25°C° 0 mm 1 m/S 761 mmHg 92%
    22:00 +25°C° 0,1 mm 1 m/S 761 mmHg 93%
    23:00 +25°C° 0,1 mm 1 m/S 761 mmHg 95%
    Mehr zeigen